Location: Bottenau
(48.5138°N, 8.0462°E)
Time: 05:13:43
(UTC+00:00)

Cosmos 1992 Rocket - Pass Details

Date: 18 April 2021
Orbit: 759 x 765 km, 74.0° (Epoch: 09 May)

Event Time Altitude Azimuth Distance (km) Brightness Sun altitude
Rises 18:48:06 0° 340° (NNW) 3,232 7.9 -4.6°
Reaches altitude 10° 18:50:33 10° 345° (NNW) 2,303 7.1 -5.0°
Maximum altitude 18:55:39 52° 62° (ENE) 949 4.3 -5.8°
Drops below altitude 10° 19:00:43 10° 138° (SE) 2,291 5.9 -6.5°
Enters shadow 19:01:52 - 141° (SE) 2,728 6.3 -6.7°
